| |
Missouri Department of Transportation

Social Media Facebook Twitter Flickr Blog YouTube RSS

Current AWOS Information

 
AWOS Home - General Info for all Airports
Current AWOS for all Airports - Current METAR for all Airports
Glossary - Disclaimer - Other Links


LEBANON--FLOYD W JONES LEBANON--KLBO
 
Recent AWOS History
 
08/28/14     06:02 AM CDT      11:02 GMT
Air Temperature 72°F (22°C ) 1st Cloud Layer Clear
Dew Point 67°F (19°C) 2nd Cloud Layer  
Barometric Pressure 30.05 in Hg. 3rd Cloud Layer  
Wind Speed 0 mph (0 knots) Density Altitude 2400 feet
Peak Wind Gusts   Variable Wind Directions  
Wind Direction   Variable Visibility  
Visibility 10 statute miles  

Thunderstorm and Precipitation Identification: 
Thunderstorm Remarks: 

Current METAR Record: METAR KLBO 281055Z AUTO 19003KT 10SM CLR 23/20 A3005 RMK AO2

 

 

 

About Us
How Do I...
Contact Us
Missouri Department of Transportation
Central Office
105 W. Capitol Avenue
Jefferson City, MO 65102
1-888-ASK-MODOT (275-6636)
1-866-831-6277 (Motor Carrier Services)
Drivers License Offices
horz_bar
| | |
Missouri State Government
© 2013 Missouri Department of Transportation. All Rights Reserved.   Privacy Policy.
 
 
 
 
RSS FeedYoutubeBlogFlickrTwitter Facebook